Regional Weather Roundup
Issued by NWS

Home | Current Version | Previous Version | Graphics & Text | Print | Product List | Glossary On
Versions: 1 2 3 4 5 6 7 8 9 10 11 12 13 14 15 16 17 18 19 20 21 22 23 24 25 26 27 28 29 30 31 32 33 34 35 36 37 38 39 40 41 42 43 44 45 46 47 48 49 50
000
ASUS43 KFSD 230110
RWRSD

WEATHER ROUNDUP FOR SOUTH DAKOTA
NATIONAL WEATHER SERVICE SIOUX FALLS SD
800 PM CDT TUE JUL 22 2014

NOTE: "FAIR" INDICATES FEW OR NO CLOUDS BELOW 12,000 FEET WITH NO
SIGNIFICANT WEATHER AND/OR OBSTRUCTIONS TO VISIBILITY.


SDZ001>005-009-010-012>017-230200-
NORTHWEST AND NORTH CENTRAL SOUTH DAKOTA

CITY           SKY/WX    TMP DP  RH WIND       PRES   REMARKS
FAITH            N/A     77  57  50 E8        30.21S
MOBRIDGE       SUNNY     79  61  53 E6        30.18R
$$

SDZ012>016-024>037-041>051-057-063-072>074-230200-
SOUTHWEST AND SOUTH CENTRAL SOUTH DAKOTA

CITY           SKY/WX    TMP DP  RH WIND       PRES   REMARKS
RAPID CTY ARPT CLOUDY    77  62  59 NE12      30.24R
PIERRE         MOSUNNY   81  59  47 SE12      30.17R
CUSTER         MOSUNNY   72  58  61 NE13G18   30.34R
ELLSWORTH AFB  TSTM      79  64  61 E17       30.25R
PHILIP         CLOUDY    83  58  42 E7        30.18R
PINE RIDGE     SUNNY     82  63  52 E16G22    30.18F
WINNER         FAIR      83  59  44 E9        30.18S
$$

SDZ004>011-016>023-039-040-230200-
NORTHEAST SOUTH DAKOTA

CITY           SKY/WX    TMP DP  RH WIND       PRES   REMARKS
ABERDEEN       SUNNY     77  61  57 NE5       30.19S
WATERTOWN      CLEAR     75  56  51 NE7       30.21R
SISSETON         N/A     75  59  57 NE9       30.18S
$$

SDZ017-020-022-023-036>040-048>070-230200-
SOUTHEAST SOUTH DAKOTA

CITY           SKY/WX    TMP DP  RH WIND       PRES   REMARKS
SIOUX FALLS    CLEAR     77  62  59 N5        30.18R
HURON          SUNNY     79  59  50 NE8       30.17S
CHAMBERLAIN    SUNNY     81  58  46 E7        30.18R
MITCHELL       SUNNY     80  62  54 E8        30.17F
YANKTON        CLEAR     79  64  61 NE7       30.16S
$$

ABBREVIATIONS USED IN REMARKS
   TC - TEMPERATURE IN CELSIUS
  WCI - WIND CHILL INDEX
   HX - HEAT INDEX
  VSB - VISIBILITY




USA.gov is the U.S. government's official web portal to all federal, state and local government web resources and services.